ATLAS 5 CENTAUR DEB, 43959

Orbit data source: Space-Track

ATLAS 5 CENTAUR DEB, 43959 is space debris in HEO originally from a launch on Wed, 17 Sep 2014 UTC launched from the Air Force Eastern Test Range (AFETR). Debris objects in space refer to the collection of defunct objects orbiting the Earth. Examples of debris include non-operational satellites, rocket bodies, and fragments generated from explosions, collisions, or faulty payload assembly.

Loading next visibility...
Identifier
43959, 2014-055N
Orbit
HEO
Country
Flag of USUS
Related business
Flag of USUnited Launch Alliance/Lockheed Martin (US)
Manufacturer
Unknown
Mission
Spacecraft
Bus & Motor
Unknown
Mass
Unknown
Launch date (UTC)
2014-09-17 (11 years ago)
Launch vehicle
Unknown
Launch site
Air Force Eastern Test Range (AFETR)
Object type
Payload
Rocket body
Debris
Shape & HBR
Unknown shape, 1.1 m
Radar Cross Section
Small (<0.1 m²)

Expand to show TLE details & history
Last TLE update: 1 week ago

TLE from 1 week ago
0 ATLAS 5 CENTAUR DEB
1 43959U 14055N   25279.14485299  .00000037  00000-0  00000-0 0  9992
2 43959  19.6088 162.5344 5064883 129.4196 287.5408  1.81432607 47057
Epoch: 2025-10-06T03:28Z
TLE epoch observation values (Epoch: 2025-10-06T03:28:35.298Z)
Latitude
0.00002°
Longitude
95.36966°
Altitude
24,760.228 km
Speed
3.401 km/s
True Right ascension
10h 50m 16s
True Declination
0° 00' 00"
Sunlit
Object was in daylight at epoch
Visualization orbit readout
Latitude
Unknown
Longitude
Unknown
Altitude
Unknown
Speed
Unknown
Apparent Right ascension
Unknown
Apparent Declination
Unknown
Sunlit
N/A
Visualization observer readout
Local Sidereal Time
05:35:25
Azimuth
Unknown
Elevation
Unknown
Doppler factor
Unknown
Orbital elements
Apogee altitude
36,403.27 km
Perigee altitude
7,636.658 km
Semi-major axis
28,398.101 km
Eccentricity
0.50649
Inclination
19.6088°
RAAN
162.5344°
Arg. of periapsis
129.4196°
True anomaly
230.55611°
Mean anomaly
287.5408°
Eccentric anomaly
259.04955°
Mean motion
0.45353 °/min
Orbital period
793.77 mins
BSTAR
0
Loading maneuver chart data...
Computing Atmospheric mass density...

Documentation

Showing up to 5 results
|